Project,Study,Ord_Occ,Event_Num,Cast_ID,Date_Time_UTC,Date_Time_PST,Lat_Dec,Lon_Dec,Sta_ID,Line,Sta,Depth,Pressure,PrQ,Temp1,Temp1Q,Temp2,Temp2Q,TempAve,Salt1,Salt1Q,Salt1_Corr,Salt2,Salt2Q,Salt2_Corr,SaltAve_Corr,Ox1,Ox1Q,Ox1_CruiseCorr,Ox1_StaCorr,Ox2,Ox2Q,Ox2_CruiseCorr,Ox2_StaCorr,OxAve_StaCorr,Ox1uM,Ox1uM_CruiseCorr,Ox1uM_StaCorr,Ox2uM,Ox2uM_CruiseCorr,Ox2uM_StaCorr,OxAveuM_StaCorr,FluorV,FluorQ,EstChl_CruiseCorr,EstChl_StaCorr,ISUSV,ISUSQ,EstNO3_CruiseCorr,EstNO3_StaCorr,SigThetaTS1,SigThetaTS1Q,SigThetaTS2,SigThetaTS2Q,BAT,XMiss,TransQ,pH,pHQ,SPAR,SPARQ,PAR,PARQ,PoT1,PoT2,DynHt,SVA,OxSat1,OxSat2,BTL_Depth,BTL_Temp,SaltB,OxB,OxBuM,Chl-a,Phaeo,NO3,NO2,NH4,PO4,SIL
CalCOFI,2101RL,012,,2101_012d,18-Jan-2021 00:34:25,17-Jan-2021 16:34:25,31.51341,-120.24618,093.3 070.0,093.3,070.0,3.000,3.021,,15.3308,,15.3374,,15.3341,33.4473,,33.4531,33.4403,,33.4423,33.4477,5.5870,,5.8473,5.8136,5.4560,,5.7928,5.7273,5.7705,243.500,255.1560,253.6368,237.794,271.2282,249.8781,251.7575,0.0737,,0.3557,0.2123, ,, , ,24.7029,,24.6960,,0.7472,82.9604,,,,2.1846E+02,,3.5611E+00,,15.3303,15.3370,0.0002,323.155,97.856,95.570,,,,,,,,,,,,
CalCOFI,2101RL,012,,2101_012d,18-Jan-2021 00:34:39,17-Jan-2021 16:34:39,31.51338,-120.24620,093.3 070.0,093.3,070.0,4.000,4.028,,15.3951,,15.3739,,15.3845,33.4470,,33.4528,33.4418,,33.4438,33.4483,5.5424,,5.8006,5.7669,5.4569,,5.7938,5.7283,5.7476,241.559,253.1242,251.6043,237.833,269.0698,249.9195,250.7619,0.0720,,0.3418,0.2040, ,, , ,24.6885,,24.6892,,0.7434,83.0408,,,,2.1846E+02,,3.1019E+00,,15.3945,15.3733,0.0063,324.553,97.198,95.655,4,,33.8555,5.822,253.97,0.257,0.073,,,,,
CalCOFI,2101RL,012,,2101_012d,18-Jan-2021 00:34:40,17-Jan-2021 16:34:40,31.51338,-120.24620,093.3 070.0,093.3,070.0,5.000,5.035,,15.2960,,15.3156,,15.3058,33.4435,,33.4493,33.4397,,33.4417,33.4455,5.5761,,5.8358,5.8022,5.4964,,5.8357,5.7702,5.7862,243.023,254.6567,253.1373,239.553,270.6978,251.7471,252.4422,0.0744,,0.3614,0.2157, ,, , ,24.7077,,24.7004,,0.7429,83.0506,,,,2.1845E+02,,2.8651E+00,,15.2953,15.3149,0.0093,322.760,97.594,96.235,,,,,,,,,,,,
CalCOFI,2101RL,012,,2101_012d,18-Jan-2021 00:34:42,17-Jan-2021 16:34:42,31.51337,-120.24620,093.3 070.0,093.3,070.0,6.000,6.042,,15.1717,,15.1860,,15.1789,33.4456,,33.4514,33.4383,,33.4403,33.4459,5.5680,,5.8274,5.7937,5.5098,,5.8500,5.7845,5.7891,242.665,254.2819,252.7624,240.128,270.2997,252.3580,252.5602,0.0811,,0.4163,0.2482, ,, , ,24.7365,,24.7278,,0.7519,82.8637,,,,2.1326E+02,,2.5909E+00,,15.1708,15.1851,0.0125,320.040,97.214,96.220,,,,,,,,,,,,
CalCOFI,2101RL,012,,2101_012d,18-Jan-2021 00:34:44,17-Jan-2021 16:34:44,31.51336,-120.24620,093.3 070.0,093.3,070.0,7.000,7.049,,15.2137,,15.2017,,15.2077,33.4455,,33.4513,33.4390,,33.4410,33.4462,5.5572,,5.8161,5.7824,5.5138,,5.8542,5.7887,5.7856,242.197,253.7920,252.2724,240.304,269.7793,252.5451,252.4088,0.0826,,0.4286,0.2555, ,, , ,24.7273,,24.7249,,0.7561,82.7773,,,,2.1099E+02,,2.4200E+00,,15.2127,15.2006,0.0158,320.951,97.107,96.321,,,,,,,,,,,,
CalCOFI,2101RL,012,,2101_012d,18-Jan-2021 00:34:46,17-Jan-2021 16:34:46,31.51336,-120.24621,093.3 070.0,093.3,070.0,8.000,8.056,,15.1008,,15.1118,,15.1063,33.4427,,33.4485,33.4376,,33.4396,33.4441,5.5778,,5.8376,5.8040,5.5354,,5.8771,5.8117,5.8079,243.090,254.7268,253.2075,241.240,270.7723,253.5396,253.3736,0.0818,,0.4221,0.2516, ,, , ,24.7498,,24.7435,,0.7634,82.6254,,,,2.1459E+02,,2.2308E+00,,15.0996,15.1106,0.0190,318.834,97.247,96.524,,,,,,,,,,,,
CalCOFI,2101RL,012,,2101_012d,18-Jan-2021 00:34:48,17-Jan-2021 16:34:48,31.51336,-120.24622,093.3 070.0,093.3,070.0,9.000,9.063,,15.0331,,15.0335,,15.0333,33.4428,,33.4486,33.4363,,33.4383,33.4435,5.6001,,5.8610,5.8273,5.5464,,5.8888,5.8233,5.8253,244.057,255.7391,254.2201,241.716,271.8476,254.0454,254.1328,0.0935,,0.5179,0.3084, ,, , ,24.7647,,24.7596,,0.7721,82.4459,,,,2.1675E+02,,2.0652E+00,,15.0318,15.0321,0.0222,317.445,97.504,96.565,,,,,,,,,,,,
CalCOFI,2101RL,012,,2101_012d,18-Jan-2021 00:34:50,17-Jan-2021 16:34:50,31.51335,-120.24622,093.3 070.0,093.3,070.0,10.000,10.070,,15.0801,,15.0930,,15.0866,33.4440,,33.4498,33.4376,,33.4396,33.4447,5.5725,,5.8321,5.7984,5.5165,,5.8571,5.7916,5.7950,242.855,254.4808,252.9614,240.416,270.5110,252.6641,252.8128,0.0995,,0.5671,0.3375, ,, , ,24.7554,,24.7476,,0.7786,82.3118,,,,2.1617E+02,,2.0184E+00,,15.0786,15.0915,0.0254,318.359,97.114,96.159,10,,33.4459,5.818,253.80,0.310,0.116,,,,,
CalCOFI,2101RL,012,,2101_012d,18-Jan-2021 00:34:51,17-Jan-2021 16:34:51,31.51334,-120.24622,093.3 070.0,093.3,070.0,11.000,11.077,,15.1413,,15.1640,,15.1527,33.4441,,33.4499,33.4380,,33.4400,33.4450,5.5636,,5.8228,5.7891,5.5243,,5.8654,5.7999,5.7945,242.471,254.0788,252.5593,240.759,270.0840,253.0285,252.7939,0.1004,,0.5745,0.3419, ,, , ,24.7422,,24.7325,,0.7776,82.3326,,,,2.1459E+02,,1.8823E+00,,15.1396,15.1623,0.0286,319.652,97.077,96.431,,,,,,,,,,,,
CalCOFI,2101RL,012,,2101_012d,18-Jan-2021 00:34:53,17-Jan-2021 16:34:53,31.51334,-120.24622,093.3 070.0,093.3,070.0,12.000,12.084,,15.0190,,15.0172,,15.0181,33.4441,,33.4499,33.4384,,33.4404,33.4452,5.5827,,5.8428,5.8091,5.5406,,5.8827,5.8172,5.8132,243.297,254.9435,253.4242,241.464,271.0025,253.7776,253.6009,0.1040,,0.6040,0.3594, ,, , ,24.7689,,24.7649,,0.7826,82.2296,,,,2.1279E+02,,1.8100E+00,,15.0172,15.0154,0.0318,317.142,97.174,96.434,,,,,,,,,,,,
CalCOFI,2101RL,012,,2101_012d,18-Jan-2021 00:34:55,17-Jan-2021 16:34:55,31.51334,-120.24622,093.3 070.0,093.3,070.0,13.000,13.091,,15.0085,,15.0088,,15.0087,33.4445,,33.4503,33.4378,,33.4398,33.4451,5.5768,,5.8366,5.8029,5.5549,,5.8979,5.8324,5.8177,243.039,254.6734,253.1541,242.086,270.7156,254.4385,253.7963,0.1038,,0.6023,0.3584, ,, , ,24.7715,,24.7663,,0.7822,82.2386,,,,2.1433E+02,,1.7550E+00,,15.0065,15.0069,0.0350,316.923,97.051,96.667,,,,,,,,,,,,
CalCOFI,2101RL,012,,2101_012d,18-Jan-2021 00:34:57,17-Jan-2021 16:34:57,31.51334,-120.24626,093.3 070.0,093.3,070.0,14.000,14.098,,15.0048,,15.0051,,15.0050,33.4448,,33.4506,33.4381,,33.4401,33.4454,5.5802,,5.8401,5.8065,5.5567,,5.8998,5.8343,5.8204,243.189,254.8304,253.3111,242.162,270.8824,254.5193,253.9152,0.1068,,0.6269,0.3730, ,, , ,24.7725,,24.7673,,0.7877,82.1258,,,,2.1576E+02,,1.6335E+00,,15.0027,15.0030,0.0382,316.852,97.104,96.690,,,,,,,,,,,,
CalCOFI,2101RL,012,,2101_012d,18-Jan-2021 00:34:58,17-Jan-2021 16:34:58,31.51334,-120.24626,093.3 070.0,093.3,070.0,15.000,15.105,,15.0013,,15.0015,,15.0014,33.4453,,33.4511,33.4386,,33.4406,33.4459,5.5803,,5.8402,5.8066,5.5455,,5.8879,5.8224,5.8145,243.192,254.8336,253.3143,241.678,270.8857,254.0050,253.6597,0.1098,,0.6515,0.3875, ,, , ,24.7737,,24.7685,,0.7846,82.1884,,,,2.1403E+02,,1.5785E+00,,14.9990,14.9993,0.0414,316.770,97.099,96.490,,,,,,,,,,,,
CalCOFI,2101RL,012,,2101_012d,18-Jan-2021 00:35:01,17-Jan-2021 16:35:01,31.51332,-120.24626,093.3 070.0,093.3,070.0,16.000,16.112,,14.9984,,14.9987,,14.9986,33.4457,,33.4515,33.4391,,33.4411,33.4463,5.5841,,5.8442,5.8106,5.5459,,5.8883,5.8228,5.8167,243.357,255.0063,253.4870,241.691,271.0692,254.0188,253.7529,0.1106,,0.6581,0.3914, ,, , ,24.7747,,24.7695,,0.7860,82.1613,,,,2.1221E+02,,1.4884E+00,,14.9960,14.9964,0.0446,316.708,97.159,96.491,,,,,,,,,,,,
CalCOFI,2101RL,012,,2101_012d,18-Jan-2021 00:35:04,17-Jan-2021 16:35:04,31.51332,-120.24628,093.3 070.0,093.3,070.0,17.000,17.119,,14.9948,,14.9951,,14.9950,33.4459,,33.4517,33.4392,,33.4412,33.4465,5.5635,,5.8227,5.7890,5.5504,,5.8931,5.8276,5.8083,242.460,254.0673,252.5478,241.889,270.0717,254.2292,253.3885,0.1114,,0.6646,0.3953, ,, , ,24.7756,,24.7704,,0.7878,82.1234,,,,2.1560E+02,,1.4337E+00,,14.9923,14.9925,0.0478,316.651,96.795,96.563,,,,,,,,,,,,
CalCOFI,2101RL,012,,2101_012d,18-Jan-2021 00:35:05,17-Jan-2021 16:35:05,31.51331,-120.24628,093.3 070.0,093.3,070.0,18.000,18.126,,14.9914,,14.9917,,14.9916,33.4459,,33.4517,33.4392,,33.4412,33.4465,5.5781,,5.8379,5.8043,5.5568,,5.8999,5.8344,5.8194,243.093,254.7300,253.2106,242.167,270.7756,254.5246,253.8676,0.1151,,0.6949,0.4133, ,, , ,24.7764,,24.7712,,0.7911,82.0560,,,,2.1621E+02,,1.3691E+00,,14.9887,14.9890,0.0510,316.604,97.041,96.667,,,,,,,,,,,,
CalCOFI,2101RL,012,,2101_012d,18-Jan-2021 00:35:14,17-Jan-2021 16:35:14,31.51329,-120.24628,093.3 070.0,093.3,070.0,19.000,19.133,,14.9893,,14.9894,,14.9894,33.4460,,33.4518,33.4394,,33.4414,33.4466,5.5757,,5.8354,5.8018,5.5418,,5.8839,5.8184,5.8101,242.989,254.6211,253.1017,241.514,270.6600,253.8307,253.4662,0.1223,,0.7539,0.4482, ,, , ,24.7770,,24.7719,,0.7916,82.0460,,,,2.1298E+02,,1.2589E+00,,14.9865,14.9866,0.0542,316.580,96.995,96.402,,,,,,,,,,,,
CalCOFI,2101RL,012,,2101_012d,18-Jan-2021 00:35:23,17-Jan-2021 16:35:23,31.51327,-120.24630,093.3 070.0,093.3,070.0,20.000,20.141,,14.9875,,14.9879,,14.9877,33.4462,,33.4520,33.4396,,33.4416,33.4468,5.5696,,5.8290,5.7954,5.5367,,5.8785,5.8130,5.8042,242.723,254.3426,252.8232,241.292,270.3642,253.5948,253.2090,0.1228,,0.7580,0.4507, ,, , ,24.7776,,24.7724,,0.7925,82.0265,,,,2.1236E+02,,1.1688E+00,,14.9845,14.9849,0.0574,316.554,96.886,96.311,20,,33.4451,5.823,254.00,0.442,0.136,,,,,
CalCOFI,2101RL,012,,2101_012d,18-Jan-2021 00:35:28,17-Jan-2021 16:35:28,31.51325,-120.24631,093.3 070.0,093.3,070.0,21.000,21.148,,14.9869,,14.9873,,14.9871,33.4467,,33.4525,33.4401,,33.4421,33.4473,5.5613,,5.8204,5.7867,5.5379,,5.8798,5.8143,5.8005,242.362,253.9647,252.4451,241.342,269.9627,253.6480,253.0466,0.1298,,0.8154,0.4846, ,, , ,24.7781,,24.7729,,0.7948,81.9798,,,,2.1604E+02,,1.1051E+00,,14.9838,14.9842,0.0608,316.538,96.741,96.330,,,,,,,,,,,,
CalCOFI,2101RL,012,,2101_012d,18-Jan-2021 00:35:34,17-Jan-2021 16:35:34,31.51323,-120.24631,093.3 070.0,093.3,070.0,22.000,22.155,,14.9861,,14.9864,,14.9863,33.4469,,33.4527,33.4403,,33.4423,33.4475,5.5682,,5.8276,5.7939,5.5442,,5.8865,5.8210,5.8075,242.662,254.2788,252.7593,241.617,270.2963,253.9402,253.3498,0.1263,,0.7867,0.4676, ,, , ,24.7785,,24.7733,,0.8032,81.8115,,,,2.1226E+02,,1.0384E+00,,14.9828,14.9831,0.0640,316.532,96.859,96.439,,,,,,,,,,,,
CalCOFI,2101RL,012,,2101_012d,18-Jan-2021 00:35:39,17-Jan-2021 16:35:39,31.51324,-120.24630,093.3 070.0,093.3,070.0,23.000,23.162,,14.9851,,14.9855,,14.9853,33.4472,,33.4530,33.4405,,33.4425,33.4478,5.5618,,5.8209,5.7872,5.5413,,5.8834,5.8179,5.8026,242.382,253.9857,252.4661,241.490,269.9850,253.8052,253.1357,0.1293,,0.8113,0.4822, ,, , ,24.7789,,24.7737,,0.7913,82.0517,,,,2.1576E+02,,9.9222E-01,,14.9817,14.9821,0.0672,316.518,96.746,96.386,,,,,,,,,,,,
CalCOFI,2101RL,012,,2101_012d,18-Jan-2021 00:35:41,17-Jan-2021 16:35:41,31.51323,-120.24631,093.3 070.0,093.3,070.0,24.000,24.169,,14.9827,,14.9830,,14.9829,33.4472,,33.4530,33.4406,,33.4426,33.4478,5.5639,,5.8231,5.7894,5.5322,,5.8737,5.8083,5.7989,242.475,254.0830,252.5635,241.094,270.0884,253.3845,252.9740,0.1289,,0.8080,0.4803, ,, , ,24.7795,,24.7744,,0.7931,82.0147,,,,2.1212E+02,,9.7137E-01,,14.9791,14.9794,0.0704,316.489,96.778,96.223,,,,,,,,,,,,
CalCOFI,2101RL,012,,2101_012d,18-Jan-2021 00:35:47,17-Jan-2021 16:35:47,31.51322,-120.24632,093.3 070.0,093.3,070.0,25.000,25.176,,14.9804,,14.9807,,14.9806,33.4472,,33.4530,33.4406,,33.4426,33.4478,5.5701,,5.8296,5.7959,5.5293,,5.8707,5.8052,5.8006,242.746,254.3667,252.8472,240.969,270.3898,253.2516,253.0494,0.1326,,0.8383,0.4982, ,, , ,24.7800,,24.7749,,0.7907,82.0649,,,,2.1193E+02,,8.8419E-01,,14.9767,14.9769,0.0736,316.475,96.882,96.169,,,,,,,,,,,,
CalCOFI,2101RL,012,,2101_012d,18-Jan-2021 00:35:51,17-Jan-2021 16:35:51,31.51322,-120.24632,093.3 070.0,093.3,070.0,26.000,26.183,,14.9768,,14.9769,,14.9769,33.4473,,33.4531,33.4408,,33.4428,33.4480,5.5592,,5.8182,5.7845,5.5265,,5.8677,5.8022,5.7934,242.271,253.8695,252.3498,240.844,269.8616,253.1188,252.7343,0.1324,,0.8367,0.4973, ,, , ,24.7809,,24.7759,,0.7931,82.0143,,,,2.1004E+02,,8.5937E-01,,14.9729,14.9730,0.0768,316.415,96.686,96.112,,,,,,,,,,,,
CalCOFI,2101RL,012,,2101_012d,18-Jan-2021 00:35:53,17-Jan-2021 16:35:53,31.51322,-120.24636,093.3 070.0,093.3,070.0,27.000,27.190,,14.9733,,14.9733,,14.9733,33.4477,,33.4535,33.4412,,33.4432,33.4484,5.5650,,5.8242,5.7906,5.5213,,5.8622,5.7967,5.7937,242.525,254.1354,252.6158,240.619,270.1440,252.8798,252.7478,0.1317,,0.8310,0.4939, ,, , ,24.7821,,24.7770,,0.7892,82.0948,,,,2.1058E+02,,8.1244E-01,,14.9692,14.9693,0.0800,316.339,96.781,96.016,,,,,,,,,,,,
CalCOFI,2101RL,012,,2101_012d,18-Jan-2021 00:35:55,17-Jan-2021 16:35:55,31.51322,-120.24637,093.3 070.0,093.3,070.0,28.000,28.197,,14.9677,,14.9679,,14.9678,33.4491,,33.4549,33.4425,,33.4445,33.4497,5.5581,,5.8170,5.7834,5.5355,,5.8773,5.8118,5.7976,242.222,253.8182,252.2985,241.239,269.8071,253.5385,252.9185,0.1293,,0.8113,0.4822, ,, , ,24.7843,,24.7792,,0.7890,82.0978,,,,2.0963E+02,,7.9361E-01,,14.9636,14.9637,0.0831,316.156,96.650,96.254,,,,,,,,,,,,
CalCOFI,2101RL,012,,2101_012d,18-Jan-2021 00:35:59,17-Jan-2021 16:35:59,31.51322,-120.24638,093.3 070.0,093.3,070.0,29.000,29.204,,14.9622,,14.9622,,14.9622,33.4507,,33.4565,33.4442,,33.4462,33.4514,5.5467,,5.8051,5.7714,5.5214,,5.8623,5.7968,5.7841,241.723,253.2958,251.7760,240.621,269.2522,252.8819,252.3290,0.1336,,0.8465,0.5031, ,, , ,24.7868,,24.7818,,0.7899,82.0799,,,,2.1120E+02,,7.3182E-01,,14.9578,14.9578,0.0863,315.948,96.441,95.998,,,,,,,,,,,,
CalCOFI,2101RL,012,,2101_012d,18-Jan-2021 00:36:03,17-Jan-2021 16:36:03,31.51324,-120.24636,093.3 070.0,093.3,070.0,30.000,30.211,,14.9515,,14.9508,,14.9512,33.4520,,33.4578,33.4456,,33.4476,33.4527,5.5411,,5.7992,5.7656,5.5091,,5.8492,5.7837,5.7747,241.477,253.0383,251.5184,240.086,268.9786,252.3134,251.9159,0.1374,,0.8777,0.5215, ,, , ,24.7901,,24.7854,,0.7925,82.0269,,,,2.0719E+02,,6.9275E-01,,14.9470,14.9463,0.0895,315.661,96.324,95.763,,,,,,,,,,,,
CalCOFI,2101RL,012,,2101_012d,18-Jan-2021 00:36:05,17-Jan-2021 16:36:05,31.51324,-120.24637,093.3 070.0,093.3,070.0,31.000,31.219,,14.9346,,14.9358,,14.9352,33.4540,,33.4598,33.4474,,33.4494,33.4546,5.5387,,5.7967,5.7631,5.5117,,5.8520,5.7865,5.7748,241.374,252.9305,251.4106,240.196,268.8641,252.4303,251.9205,0.1379,,0.8818,0.5240, ,, , ,24.7954,,24.7900,,0.7973,81.9291,,,,2.1012E+02,,6.7572E-01,,14.9300,14.9312,0.0927,315.191,96.252,95.780,,,,,,,,,,,,
CalCOFI,2101RL,012,,2101_012d,18-Jan-2021 00:36:07,17-Jan-2021 16:36:07,31.51324,-120.24638,093.3 070.0,093.3,070.0,32.000,32.226,,14.9191,,14.9192,,14.9192,33.4574,,33.4632,33.4509,,33.4529,33.4581,5.5425,,5.8007,5.7670,5.5225,,5.8634,5.7980,5.7825,241.539,253.1032,251.5833,240.669,269.0476,252.9329,252.2581,0.1451,,0.9408,0.5589, ,, , ,24.8013,,24.7964,,0.7978,81.9192,,,,2.1059E+02,,6.4656E-01,,14.9144,14.9145,0.0958,314.654,96.290,95.940,,,,,,,,,,,,
CalCOFI,2101RL,012,,2101_012d,18-Jan-2021 00:36:09,17-Jan-2021 16:36:09,31.51324,-120.24638,093.3 070.0,093.3,070.0,33.000,33.233,,14.9165,,14.9164,,14.9165,33.4582,,33.4640,33.4517,,33.4537,33.4589,5.5460,,5.8043,5.7707,5.5070,,5.8470,5.7815,5.7761,241.692,253.2634,251.7435,239.993,269.2177,252.2146,251.9791,0.1469,,0.9555,0.5677, ,, , ,24.8026,,24.7976,,0.7997,81.8788,,,,2.1246E+02,,6.1794E-01,,14.9115,14.9115,0.0990,314.562,96.347,95.665,,,,,,,,,,,,
CalCOFI,2101RL,012,,2101_012d,18-Jan-2021 00:36:13,17-Jan-2021 16:36:13,31.51322,-120.24638,093.3 070.0,093.3,070.0,34.000,34.240,,14.9176,,14.9190,,14.9183,33.4597,,33.4655,33.4534,,33.4554,33.4605,5.5351,,5.7929,5.7593,5.4952,,5.8345,5.7690,5.7642,241.215,252.7641,251.2440,239.478,268.6873,251.6674,251.4557,0.1455,,0.9440,0.5609, ,, , ,24.8036,,24.7984,,0.8061,81.7483,,,,2.1485E+02,,5.7613E-01,,14.9125,14.9139,0.1022,314.500,96.160,95.466,,,,,,,,,,,,
CalCOFI,2101RL,012,,2101_012d,18-Jan-2021 00:36:15,17-Jan-2021 16:36:15,31.51322,-120.24637,093.3 070.0,093.3,070.0,35.000,35.247,,14.9549,,14.9553,,14.9551,33.4724,,33.4782,33.4656,,33.4676,33.4729,5.5328,,5.7905,5.7569,5.4846,,5.8232,5.7577,5.7573,241.115,252.6594,251.1393,239.017,268.5761,251.1776,251.1585,0.1475,,0.9604,0.5706, ,, , ,24.8054,,24.8000,,0.8002,81.8684,,,,2.1029E+02,,5.4846E-01,,14.9496,14.9500,0.1054,314.365,96.200,95.359,,,,,,,,,,,,
CalCOFI,2101RL,012,,2101_012d,18-Jan-2021 00:36:18,17-Jan-2021 16:36:18,31.51322,-120.24636,093.3 070.0,093.3,070.0,36.000,36.254,,14.9636,,14.9644,,14.9640,33.4752,,33.4810,33.4686,,33.4706,33.4758,5.5489,,5.8074,5.7737,5.4924,,5.8315,5.7660,5.7699,241.814,253.3911,251.8713,239.352,269.3534,251.5335,251.7024,0.1476,,0.9612,0.5711, ,, , ,24.8056,,24.8004,,0.7963,81.9494,,,,2.1077E+02,,5.2809E-01,,14.9583,14.9590,0.1085,314.373,96.497,95.512,,,,,,,,,,,,
CalCOFI,2101RL,012,,2101_012d,18-Jan-2021 00:36:19,17-Jan-2021 16:36:19,31.51322,-120.24638,093.3 070.0,093.3,070.0,37.000,37.261,,14.9764,,14.9819,,14.9792,33.4809,,33.4867,33.4758,,33.4778,33.4823,5.5076,,5.7642,5.7305,5.4675,,5.8050,5.7396,5.7351,240.016,251.5089,249.9885,238.271,267.3540,250.3849,250.1867,0.1685,,1.1325,0.6725, ,, , ,24.8072,,24.8022,,0.7945,81.9863,,,,2.1614E+02,,5.1155E-01,,14.9709,14.9763,0.1117,314.247,95.807,95.118,,,,,,,,,,,,
CalCOFI,2101RL,012,,2101_012d,18-Jan-2021 00:36:21,17-Jan-2021 16:36:21,31.51322,-120.24638,093.3 070.0,093.3,070.0,38.000,38.269,,15.0510,,15.0507,,15.0509,33.5067,,33.5125,33.4999,,33.5019,33.5072,5.4886,,5.7443,5.7106,5.4488,,5.7852,5.7197,5.7152,239.187,250.6412,249.1204,237.453,266.4321,249.5157,249.3181,0.1502,,0.9826,0.5837, ,, , ,24.8110,,24.8058,,0.7884,82.1119,,,,2.1925E+02,,4.9174E-01,,15.0453,15.0450,0.1148,313.929,95.634,94.936,,,,,,,,,,,,
CalCOFI,2101RL,012,,2101_012d,18-Jan-2021 00:36:23,17-Jan-2021 16:36:23,31.51322,-120.24638,093.3 070.0,093.3,070.0,39.000,39.276,,15.0434,,15.0428,,15.0431,33.5054,,33.5112,33.4986,,33.5006,33.5059,5.4688,,5.7235,5.6899,5.4430,,5.7790,5.7135,5.7017,238.323,249.7367,248.2157,237.200,265.4713,249.2469,248.7313,0.1334,,0.8449,0.5021, ,, , ,24.8117,,24.8066,,0.7827,82.2270,,,,2.1540E+02,,4.6848E-01,,15.0375,15.0369,0.1180,313.893,95.273,94.819,,,,,,,,,,,,
CalCOFI,2101RL,012,,2101_012d,18-Jan-2021 00:36:25,17-Jan-2021 16:36:25,31.51322,-120.24637,093.3 070.0,093.3,070.0,40.000,40.283,,15.0367,,15.0358,,15.0363,33.5037,,33.5095,33.4968,,33.4988,33.5042,5.4667,,5.7213,5.6877,5.4378,,5.7735,5.7080,5.6979,238.230,249.6394,248.1183,236.974,265.3679,249.0068,248.5626,0.1334,,0.8449,0.5021, ,, , ,24.8118,,24.8067,,0.7734,82.4183,,,,2.1346E+02,,4.4534E-01,,15.0307,15.0298,0.1212,313.907,95.223,94.715,,,,,,,,,,,,
CalCOFI,2101RL,012,,2101_012d,18-Jan-2021 00:36:27,17-Jan-2021 16:36:27,31.51322,-120.24636,093.3 070.0,093.3,070.0,41.000,41.290,,15.0318,,15.0320,,15.0319,33.5022,,33.5080,33.4955,,33.4975,33.5028,5.4759,,5.7310,5.6973,5.4291,,5.7642,5.6988,5.6981,238.631,250.0591,248.5382,236.594,265.8138,248.6030,248.5706,0.1274,,0.7957,0.4730, ,, , ,24.8118,,24.8066,,0.7701,82.4877,,,,2.1608E+02,,4.2348E-01,,15.0257,15.0258,0.1243,313.942,95.373,94.554,,,,,,,,,,,,
CalCOFI,2101RL,012,,2101_012d,18-Jan-2021 00:36:30,17-Jan-2021 16:36:30,31.51322,-120.24636,093.3 070.0,093.3,070.0,42.000,42.297,,15.0307,,15.0314,,15.0311,33.5018,,33.5076,33.4953,,33.4973,33.5025,5.4659,,5.7205,5.6869,5.4280,,5.7631,5.6976,5.6923,238.195,249.6027,248.0817,236.545,265.3290,248.5510,248.3164,0.1322,,0.8351,0.4963, ,, , ,24.8118,,24.8066,,0.7694,82.5016,,,,2.1352E+02,,4.0749E-01,,15.0244,15.0251,0.1275,313.973,95.196,94.534,,,,,,,,,,,,
CalCOFI,2101RL,012,,2101_012d,18-Jan-2021 00:36:32,17-Jan-2021 16:36:32,31.51322,-120.24637,093.3 070.0,093.3,070.0,43.000,43.305,,15.0301,,15.0306,,15.0304,33.5020,,33.5078,33.4953,,33.4973,33.5026,5.4738,,5.7288,5.6951,5.4184,,5.7529,5.6874,5.6913,238.539,249.9628,248.4419,236.129,265.7115,248.1089,248.2754,0.1269,,0.7916,0.4706, ,, , ,24.8121,,24.8068,,0.7663,82.5657,,,,2.1723E+02,,3.9399E-01,,15.0236,15.0241,0.1307,313.977,95.333,94.366,,,,,,,,,,,,
CalCOFI,2101RL,012,,2101_012d,18-Jan-2021 00:36:33,17-Jan-2021 16:36:33,31.51322,-120.24638,093.3 070.0,093.3,070.0,44.000,44.312,,15.0300,,15.0303,,15.0302,33.5024,,33.5082,33.4959,,33.4979,33.5031,5.4719,,5.7268,5.6932,5.4243,,5.7591,5.6937,5.6935,238.459,249.8791,248.3581,236.386,265.6225,248.3820,248.3701,0.1544,,1.0170,0.6041, ,, , ,24.8125,,24.8074,,0.7644,82.6044,,,,2.2232E+02,,3.8223E-01,,15.0234,15.0237,0.1338,313.967,95.301,94.469,,,,,,,,,,,,
CalCOFI,2101RL,012,,2101_012d,18-Jan-2021 00:36:35,17-Jan-2021 16:36:35,31.51322,-120.24639,093.3 070.0,093.3,070.0,45.000,45.319,,15.0306,,15.0309,,15.0308,33.5028,,33.5086,33.4962,,33.4982,33.5034,5.4562,,5.7104,5.6767,5.4236,,5.7584,5.6929,5.6848,237.775,249.1631,247.6419,236.356,264.8619,248.3501,247.9960,0.1270,,0.7925,0.4710, ,, , ,24.8126,,24.8075,,0.7622,82.6497,,,,2.2226E+02,,3.7141E-01,,15.0239,15.0242,0.1370,313.981,95.029,94.458,,,,,,,,,,,,
CalCOFI,2101RL,012,,2101_012d,18-Jan-2021 00:36:36,17-Jan-2021 16:36:36,31.51322,-120.24640,093.3 070.0,093.3,070.0,46.000,46.326,,15.0367,,15.0373,,15.0370,33.5051,,33.5109,33.4985,,33.5005,33.5057,5.4693,,5.7241,5.6904,5.4211,,5.7558,5.6903,5.6904,238.346,249.7608,248.2398,236.245,265.4969,248.2322,248.2360,0.1194,,0.7302,0.4341, ,, , ,24.8131,,24.8079,,0.7596,82.7046,,,,2.1865E+02,,3.5695E-01,,15.0298,15.0304,0.1401,313.968,95.270,94.427,,,,,,,,,,,,
CalCOFI,2101RL,012,,2101_012d,18-Jan-2021 00:36:38,17-Jan-2021 16:36:38,31.51324,-120.24639,093.3 070.0,093.3,070.0,47.000,47.333,,15.0397,,15.0402,,15.0400,33.5060,,33.5118,33.4994,,33.5014,33.5066,5.4704,,5.7252,5.6916,5.4148,,5.7491,5.6836,5.6876,238.392,249.8089,248.2879,235.972,265.5480,247.9421,248.1150,0.1156,,0.6990,0.4157, ,, , ,24.8132,,24.8080,,0.7582,82.7340,,,,2.1620E+02,,3.4751E-01,,15.0327,15.0332,0.1433,313.987,95.295,94.324,,,,,,,,,,,,
CalCOFI,2101RL,012,,2101_012d,18-Jan-2021 00:36:40,17-Jan-2021 16:36:40,31.51326,-120.24638,093.3 070.0,093.3,070.0,48.000,48.340,,15.0398,,15.0403,,15.0401,33.5060,,33.5118,33.4994,,33.5014,33.5066,5.4732,,5.7282,5.6945,5.4291,,5.7642,5.6988,5.6967,238.514,249.9367,248.4157,236.593,265.6837,248.6020,248.5089,0.1179,,0.7179,0.4269, ,, , ,24.8132,,24.8080,,0.7566,82.7664,,,,2.1614E+02,,3.3094E-01,,15.0326,15.0331,0.1465,314.023,95.343,94.572,,,,,,,,,,,,
CalCOFI,2101RL,012,,2101_012d,18-Jan-2021 00:36:43,17-Jan-2021 16:36:43,31.51324,-120.24638,093.3 070.0,093.3,070.0,49.000,49.348,,15.0414,,15.0421,,15.0418,33.5065,,33.5123,33.5000,,33.5020,33.5072,5.4629,,5.7174,5.6837,5.4251,,5.7600,5.6945,5.6891,238.064,249.4656,247.9445,236.419,265.1833,248.4171,248.1808,0.1175,,0.7146,0.4249, ,, , ,24.8133,,24.8081,,0.7551,82.7973,,,,2.1825E+02,,3.2040E-01,,15.0341,15.0348,0.1496,314.045,95.167,94.506,,,,,,,,,,,,
CalCOFI,2101RL,012,,2101_012d,18-Jan-2021 00:36:45,17-Jan-2021 16:36:45,31.51324,-120.24638,093.3 070.0,093.3,070.0,50.000,50.355,,15.0433,,15.0434,,15.0434,33.5074,,33.5132,33.5009,,33.5029,33.5081,5.4464,,5.7001,5.6665,5.4031,,5.7366,5.6712,5.6689,237.347,248.7150,247.1937,235.459,264.3860,247.3970,247.2954,0.1166,,0.7072,0.4206, ,, , ,24.8136,,24.8086,,0.7541,82.8174,,,,2.2671E+02,,3.1152E-01,,15.0358,15.0359,0.1528,314.044,94.885,94.126,50,,33.5067,5.646,246.27,0.448,0.203,,,,,
CalCOFI,2101RL,012,,2101_012d,18-Jan-2021 00:36:47,17-Jan-2021 16:36:47,31.51324,-120.24638,093.3 070.0,093.3,070.0,51.000,51.362,,15.0368,,15.0371,,15.0370,33.5071,,33.5129,33.5005,,33.5025,33.5077,5.4297,,5.6826,5.6490,5.4028,,5.7363,5.6709,5.6600,236.618,247.9519,246.4303,235.446,263.5753,247.3832,246.9068,0.1123,,0.6720,0.3997, ,, , ,24.8148,,24.8097,,0.7539,82.8235,,,,2.2713E+02,,3.0371E-01,,15.0292,15.0294,0.1560,313.959,94.581,94.108,,,,,,,,,,,,
CalCOFI,2101RL,012,,2101_012d,18-Jan-2021 00:36:48,17-Jan-2021 16:36:48,31.51324,-120.24639,093.3 070.0,093.3,070.0,52.000,52.369,,15.0349,,15.0343,,15.0346,33.5074,,33.5132,33.5010,,33.5030,33.5081,5.4303,,5.6833,5.6496,5.3936,,5.7265,5.6611,5.6554,236.643,247.9781,246.4565,235.046,263.6031,246.9582,246.7074,0.1129,,0.6769,0.4026, ,, , ,24.8155,,24.8107,,0.7543,82.8149,,,,2.2255E+02,,2.8999E-01,,15.0270,15.0265,0.1591,313.924,94.587,93.944,,,,,,,,,,,,